Location: Chittendens Corners
(41.2320°N, 81.4940°W)
Time: 08:22:35
(UTC+00:00)

COSMO-SKYMED 1 - Pass Details

Date: 29 October 2020
Orbit: 621 x 623 km, 97.9° (Epoch: 28 November)

Event Time Altitude Azimuth Distance (km) Brightness Sun altitude
Rises 23:31:26 0° 12° (NNE) 2,911 5.8 -13.1°
Reaches altitude 10° 23:33:38 10° 13° (NNE) 2,000 5.0 -13.5°
Maximum altitude 23:37:59 87° 99° (E) 629 2.5 -14.4°
Drops below altitude 10° 23:42:19 10° 193° (SSW) 1,984 5.4 -15.2°
Sets 23:44:29 0° 193° (SSW) 2,885 6.2 -15.6°
